Location: Milton
(43.5183°N, 79.8775°W)
Time: 12:12:12
(UTC+00:00)

Gurwin Techsat 1B - Pass Details

Date: 24 April 2024
Orbit: 811 x 812 km, 98.9° (Epoch: 26 May)

Event Time Altitude Azimuth Distance (km) Brightness Sun altitude
Rises 08:49:22 0° 15° (NNE) 3,345 12.7 -15.7°
Reaches altitude 10° 08:51:43 10° 18° (NNE) 2,409 11.9 -15.3°
Maximum altitude 08:57:03 74° 103° (ESE) 847 8.8 -14.5°
Drops below altitude 10° 09:02:20 10° 189° (S) 2,391 10.7 -13.7°
Enters shadow 09:02:56 - 190° (S) 2,628 10.9 -13.6°
